Location: Grums
(59.3529°N, 13.1129°E)
Time: 22:40:42
(UTC+01:00)

FO-29 - Visible Passes

Search period start: 05 December 2021 00:00
Search period end: 15 December 2021 00:00
Orbit: 799 x 1322 km, 98.5° (Epoch: 05 December)

Date Brightness Start Highest point End Pass type
(mag) Time Alt. Az. Time Alt. Az. Time Alt. Az.
05 Dec 11.8 07:43:34 10° NE 07:47:30 19° E 07:51:40 10° SE visible
05 Dec 10.4 18:12:24 23° NNE 18:12:24 23° NNE 18:15:13 10° N visible
05 Dec 10.9 19:58:52 24° NNW 19:58:52 24° NNW 20:00:55 10° NNW visible
06 Dec 10.7 17:16:34 15° NE 17:16:34 15° NE 17:19:29 10° N visible
06 Dec 10.4 19:03:03 27° N 19:03:03 27° N 19:05:36 10° NNW visible
06 Dec 11.5 20:49:31 17° NW 20:49:31 17° NW 20:50:51 10° NNW visible
07 Dec 11.8 07:38:28 10° NE 07:42:22 19° E 07:46:29 10° SE visible
07 Dec 10.4 18:07:13 22° NNE 18:07:13 22° NNE 18:10:05 10° N visible
07 Dec 10.8 19:53:41 25° NNW 19:53:41 25° NNW 19:55:48 10° NNW visible
07 Dec 12.1 21:40:10 10° NW 21:40:10 10° NW 21:40:17 10° NW visible
08 Dec 10.7 17:11:22 15° NE 17:11:30 15° NE 17:14:20 10° N visible
08 Dec 10.4 18:57:51 27° N 18:57:51 27° N 19:00:28 10° N visible
08 Dec 11.4 20:44:19 18° NNW 20:44:19 18° NNW 20:45:45 10° NNW visible
09 Dec 11.9 07:33:21 10° NE 07:37:13 18° E 07:41:19 10° SE visible
09 Dec 10.5 18:02:00 22° NNE 18:02:00 22° NNE 18:04:58 10° N visible
09 Dec 10.8 19:48:28 26° NNW 19:48:28 26° NNW 19:50:41 10° NNW visible
09 Dec 12.0 21:34:57 11° NW 21:34:57 11° NW 21:35:17 10° NW visible
10 Dec 10.8 17:06:08 14° NE 17:06:28 14° NE 17:09:13 10° N visible
10 Dec 10.4 18:52:37 28° N 18:52:37 28° N 18:55:22 10° N visible
10 Dec 11.4 20:39:05 19° NNW 20:39:05 19° NNW 20:40:41 10° NNW visible
11 Dec 11.9 07:28:16 10° NE 07:32:05 18° E 07:36:08 10° SE visible
11 Dec 10.5 17:56:46 22° NNE 17:56:46 22° NNE 17:59:52 10° N visible
11 Dec 10.7 19:43:14 27° NNW 19:43:14 27° NNW 19:45:35 10° NNW visible
11 Dec 12.0 21:29:42 12° NW 21:29:42 12° NW 21:30:15 10° NW visible
12 Dec 10.8 17:00:54 14° NE 17:01:26 14° NNE 17:04:08 10° N visible
12 Dec 10.3 18:47:22 28° N 18:47:22 28° N 18:50:16 10° N visible
12 Dec 11.3 20:33:50 20° NNW 20:33:50 20° NNW 20:35:37 10° NNW visible
13 Dec 12.0 07:23:10 10° NE 07:26:57 17° E 07:30:58 10° ESE visible
13 Dec 10.5 17:51:30 22° NNE 17:51:30 22° NNE 17:54:47 10° N visible
13 Dec 10.6 19:37:58 28° NNW 19:37:58 28° NNW 19:40:30 10° NNW visible
13 Dec 11.9 21:24:26 13° NW 21:24:26 13° NW 21:25:14 10° NW visible
14 Dec 10.8 16:55:37 13° NE 16:56:24 14° NNE 16:59:03 10° N visible
14 Dec 10.3 18:42:05 29° NNE 18:42:05 29° NNE 18:45:11 10° N visible
14 Dec 11.2 20:28:33 22° NNW 20:28:33 22° NNW 20:30:33 10° NNW visible
